Weather History for KMUI - July, 2013

Change the Weather History Date:

Sunday, July 14, 2013

  Actual Average Record
Temperature  
Mean Temperature 79 °F -  
Max Temperature 89 °F 81 °F 95 °F (1997)
Min Temperature 71 °F 66 °F 54 °F (2007)
Cooling Degree Days 14    
Growing Degree Days 29 (Base 50)    
Moisture  
Dew Point 73 °F    
Average Humidity 86    
Maximum Humidity 100    
Minimum Humidity 55    
Precipitation  
Precipitation 0.00 in - - ()
Sea Level Pressure  
Sea Level Pressure 30.33 in    
Wind  
Wind Speed 1 mph (SSW)    
Max Wind Speed 7 mph    
Max Gust Speed -    
Visibility 9 miles    
Events      
Averages and records for this station are not official NWS values.
T = Trace of Precipitation, MM = Missing Value Source: NWS Daily Summary

Daily Weather History Graph

Daily Weather History Graph

Search for Another Location

Airport or City:

Trip Planner

Search our weather history database for the weather conditions in past years. The results will help you decide how hot, cold, wet, or windy it might be!

Date:

Astronomy

Jul. 14, 2013 Rise Set
Actual Time 5:48 AM EDT 8:35 PM EDT
Civil Twilight 5:15 AM EDT 9:07 PM EDT
Nautical Twilight 4:35 AM EDT 9:48 PM EDT
Astronomical Twilight 3:49 AM EDT 10:34 PM EDT
Moon 12:04 PM EDT (7/14) 11:45 PM EDT (7/14)
Length of Visible Light 15h 51m
Length of Day
14h 47m
Waxing Crescent, 35% of the Moon is Illuminated
Jul 14
Waxing Crescent
Jul 15
First Quarter
Jul 22
Full
Jul 29
Last Quarter
Aug 6
New

Hourly Weather History & Observations

Time (EDT) Temp. Heat Index Dew Point Humidity Pressure Visibility Wind Dir Wind Speed Gust Speed Precip Events Conditions
12:56 AM 71.6 °F - 71.6 °F 100% 30.31 in 10.0 mi Calm Calm - N/A   Scattered Clouds
1:56 AM 71.6 °F - 71.6 °F 100% 30.31 in 8.0 mi Calm Calm - N/A   Partly Cloudy
2:56 AM 71.6 °F - 71.6 °F 100% 30.30 in 8.0 mi Calm Calm - N/A   Overcast
4:56 AM 73.4 °F - 73.4 °F 100% 30.31 in 10.0 mi Calm Calm - N/A   Overcast
5:56 AM 73.4 °F - 73.4 °F 100% 30.32 in 8.0 mi Calm Calm - N/A   Overcast
6:05 AM 73.4 °F - 73.4 °F 100% 30.32 in 7.0 mi Calm Calm - N/A   Overcast
6:26 AM 73.4 °F - 73.4 °F 100% 30.33 in 7.0 mi Calm Calm - N/A   Overcast
6:47 AM 73.4 °F - 73.4 °F 100% 30.33 in 8.0 mi Calm Calm - N/A   Overcast
6:56 AM 73.4 °F - 73.4 °F 100% 30.34 in 8.0 mi Calm Calm - N/A   Overcast
6:59 AM 73.4 °F - 73.4 °F 100% 30.34 in 9.0 mi Calm Calm - N/A   Overcast
7:56 AM 75.2 °F - 75.2 °F 100% 30.35 in 9.0 mi Calm Calm - N/A   Overcast
8:00 AM 75.2 °F - 75.2 °F 100% 30.35 in 9.0 mi Calm Calm - N/A   Overcast
8:18 AM 75.2 °F - 75.2 °F 100% 30.36 in 10.0 mi Calm Calm - N/A   Mostly Cloudy
8:32 AM 77.0 °F - 75.2 °F 94% 30.36 in 10.0 mi Calm Calm - N/A   Mostly Cloudy
8:38 AM 77.0 °F - 73.4 °F 89% 30.36 in 10.0 mi Calm Calm - N/A   Mostly Cloudy
8:43 AM 77.0 °F - 75.2 °F 94% 30.36 in 10.0 mi Calm Calm - N/A   Scattered Clouds
8:56 AM 77.0 °F - 73.4 °F 89% 30.36 in 10.0 mi Calm Calm - N/A   Partly Cloudy
9:56 AM 80.6 °F 85.4 °F 73.4 °F 79% 30.36 in 10.0 mi Calm Calm - N/A   Scattered Clouds
10:56 AM 82.4 °F 88.2 °F 73.4 °F 74% 30.36 in 10.0 mi Calm Calm - N/A   Scattered Clouds
11:56 AM 82.4 °F 87.2 °F 71.6 °F 70% 30.36 in 10.0 mi Calm Calm - N/A   Partly Cloudy
12:56 PM 86.0 °F 91.8 °F 71.6 °F 62% 30.35 in 10.0 mi SSW 6.9 mph - N/A   Scattered Clouds
1:56 PM 86.0 °F 90.4 °F 69.8 °F 58% 30.33 in 10.0 mi SSW 4.6 mph - N/A   Partly Cloudy
2:56 PM 87.8 °F 93.8 °F 71.6 °F 58% 30.32 in 10.0 mi SSW 5.8 mph - N/A   Clear
3:56 PM 87.8 °F 92.6 °F 69.8 °F 55% 30.30 in 10.0 mi Calm Calm - N/A   Clear
4:56 PM 87.8 °F 92.6 °F 69.8 °F 55% 30.30 in 10.0 mi SSW 4.6 mph - N/A   Clear
5:56 PM 87.8 °F 92.6 °F 69.8 °F 55% 30.29 in 10.0 mi SW 4.6 mph - N/A   Clear
6:56 PM 87.8 °F 92.6 °F 69.8 °F 55% 30.27 in 10.0 mi SSW 4.6 mph - N/A   Clear
7:56 PM 82.4 °F 88.2 °F 73.4 °F 74% 30.28 in 10.0 mi Calm Calm - N/A   Clear
8:56 PM 77.0 °F - 73.4 °F 89% 30.29 in 10.0 mi Calm Calm - N/A   Clear
9:58 PM 74.3 °F - 72.5 °F 94% 30.30 in 10.0 mi Calm Calm - N/A   Clear
10:58 PM 72.7 °F - 72.5 °F 99% 30.30 in 10.0 mi Calm Calm - N/A   Clear
11:58 PM 72.3 °F - 72.0 °F 99% 30.30 in 10.0 mi Calm Calm - N/A   Clear